TimeEDT,TemperatureF,Dew PointF,Humidity,Sea Level PressureIn,VisibilityMPH,Wind Direction,Wind SpeedMPH,Gust SpeedMPH,PrecipitationIn,Events,Conditions,WindDirDegrees,DateUTC
12:53 AM,48.9,34.0,56,29.92,10.0,NW,18.4,23.0,N/A,,Mostly Cloudy,310,2012-10-23 04:53:00
2:53 AM,45.0,33.1,63,29.93,10.0,Variable,4.6,-,N/A,,Clear,0,2012-10-23 06:53:00
3:53 AM,44.1,32.0,63,29.94,10.0,WNW,8.1,-,N/A,,Clear,290,2012-10-23 07:53:00
4:53 AM,42.1,32.0,67,29.96,10.0,WNW,6.9,-,N/A,,Clear,290,2012-10-23 08:53:00
5:53 AM,42.1,32.0,67,29.99,10.0,WNW,6.9,-,N/A,,Clear,300,2012-10-23 09:53:00
6:53 AM,41.0,32.0,70,30.01,10.0,WNW,8.1,-,N/A,,Partly Cloudy,300,2012-10-23 10:53:00
7:53 AM,42.1,33.1,70,30.04,10.0,WNW,8.1,-,N/A,,Partly Cloudy,290,2012-10-23 11:53:00
8:53 AM,45.0,33.1,63,30.04,10.0,WNW,11.5,-,N/A,,Partly Cloudy,300,2012-10-23 12:53:00
11:53 AM,50.0,30.9,48,30.01,10.0,NW,15.0,21.9,N/A,,Partly Cloudy,310,2012-10-23 15:53:00
12:53 PM,51.8,32.0,47,29.99,10.0,WNW,13.8,19.6,N/A,,Partly Cloudy,300,2012-10-23 16:53:00
1:53 PM,54.0,32.0,43,29.99,10.0,NW,9.2,-,N/A,,Partly Cloudy,310,2012-10-23 17:53:00
2:53 PM,55.9,32.0,40,29.99,10.0,NW,11.5,23.0,N/A,,Scattered Clouds,310,2012-10-23 18:53:00
3:53 PM,55.9,30.9,39,29.99,10.0,NW,13.8,20.7,N/A,,Partly Cloudy,320,2012-10-23 19:53:00
4:53 PM,54.0,30.0,40,29.99,10.0,NW,9.2,17.3,N/A,,Partly Cloudy,310,2012-10-23 20:53:00
5:53 PM,52.0,28.9,41,30.01,10.0,NW,6.9,-,N/A,,Partly Cloudy,310,2012-10-23 21:53:00
6:53 PM,50.0,28.4,43,30.04,10.0,WNW,6.9,-,N/A,,Partly Cloudy,300,2012-10-23 22:53:00
7:53 PM,46.9,28.9,50,30.06,10.0,West,9.2,-,N/A,,Partly Cloudy,280,2012-10-23 23:53:00
8:53 PM,46.0,30.0,54,30.09,10.0,WNW,8.1,-,N/A,,Clear,300,2012-10-24 00:53:00
9:53 PM,44.1,28.9,55,30.10,10.0,WNW,5.8,-,N/A,,Clear,290,2012-10-24 01:53:00
10:53 PM,44.1,30.0,58,30.12,10.0,NW,6.9,-,N/A,,Clear,310,2012-10-24 02:53:00
11:53 PM,39.9,30.0,68,30.13,10.0,WNW,4.6,-,N/A,,Clear,290,2012-10-24 03:53:00